| time (UTC) | temp F | wind direction | speed knots | gust knots | rain 1hr in | rain 24hr in | rain mn in | humidity % | barometer mb |
| 20260506153021 | 68 | 219 | 1.7 | 11.3 | 0.00 | 0.00 | 0.00 | 67 | 1009.0 |
| 20260506151520 | 68 | 175 | 4.3 | 11.3 | 0.00 | 0.00 | 0.00 | 67 | 1009.0 |
| 20260506150017 | 69 | 207 | 3.5 | 13.9 | 0.00 | 0.00 | 0.00 | 67 | 1009.0 |
| 20260506144523 | 68 | 217 | 4.3 | 17.4 | 0.00 | 0.00 | 0.00 | 66 | 1008.8 |
| 20260506143012 | 68 | 214 | 5.2 | 13.9 | 0.00 | 0.00 | 0.00 | 68 | 1008.7 |
| 20260506141522 | 67 | 204 | 5.2 | 9.6 | 0.00 | 0.00 | 0.00 | 68 | 1008.7 |
| 20260506140005 | 67 | 207 | 4.3 | 10.4 | 0.00 | 0.00 | 0.00 | 69 | 1008.9 |
| 20260506134500 | 66 | 188 | 3.5 | 13.9 | 0.00 | 0.00 | 0.00 | 71 | 1009.4 |
| 20260506133109 | 65 | 174 | 5.2 | 13.9 | 0.00 | 0.00 | 0.00 | 74 | 1009.6 |
| 20260506131614 | 64 | 209 | 3.5 | 13.0 | 0.00 | 0.00 | 0.00 | 76 | 1009.5 |
| 20260506130049 | 62 | 191 | 3.5 | 14.8 | 0.00 | 0.00 | 0.00 | 78 | 1009.7 |
| 20260506124546 | 61 | 216 | 4.3 | 16.5 | 0.00 | 0.00 | 0.00 | 80 | 1009.4 |
| 20260506123044 | 61 | 156 | 4.3 | 13.9 | 0.00 | 0.00 | 0.00 | 81 | 1009.2 |
| 20260506121545 | 60 | 146 | 5.2 | 13.9 | 0.00 | 0.00 | 0.00 | 82 | 1009.7 |
| 20260506120056 | 60 | 200 | 4.3 | 13.0 | 0.00 | 0.00 | 0.00 | 83 | 1009.8 |
| 20260506114537 | 59 | 180 | 2.6 | 14.8 | 0.00 | 0.00 | 0.00 | 85 | 1009.9 |
| 20260506113035 | 59 | 159 | 3.5 | 12.2 | 0.00 | 0.00 | 0.00 | 85 | 1009.9 |
| 20260506111536 | 58 | 219 | 3.5 | 8.7 | 0.00 | 0.00 | 0.00 | 86 | 1009.9 |
| 20260506110034 | 58 | 169 | 4.3 | 13.9 | 0.00 | 0.00 | 0.00 | 86 | 1009.9 |
| 20260506104631 | 58 | 207 | 2.6 | 12.2 | 0.00 | 0.00 | 0.00 | 86 | 1010.0 |
| 20260506103037 | 58 | 203 | 2.6 | 7.0 | 0.00 | 0.00 | 0.00 | 86 | 1009.9 |
| 20260506101521 | 58 | 196 | 3.5 | 7.8 | 0.00 | 0.00 | 0.00 | 86 | 1009.7 |
| 20260506100019 | 58 | 137 | 2.6 | 8.7 | 0.00 | 0.00 | 0.00 | 86 | 1009.7 |
| 20260506094515 | 58 | 176 | 4.3 | 13.0 | 0.00 | 0.00 | 0.00 | 86 | 1009.7 |
| 20260506093019 | 58 | 153 | 3.5 | 8.7 | 0.00 | 0.00 | 0.00 | 85 | 1009.5 |
| 20260506091510 | 58 | 200 | 4.3 | 7.0 | 0.00 | 0.00 | 0.00 | 85 | 1009.6 |
| 20260506090008 | 58 | 203 | 3.5 | 12.2 | 0.00 | 0.00 | 0.00 | 85 | 1009.6 |
| 20260506084509 | 58 | 204 | 1.7 | 10.4 | 0.00 | 0.00 | 0.00 | 85 | 1009.8 |
| 20260506083006 | 58 | 252 | 2.6 | 18.2 | 0.00 | 0.00 | 0.00 | 84 | 1009.8 |
| 20260506081504 | 58 | 205 | 4.3 | 13.9 | 0.00 | 0.00 | 0.00 | 84 | 1009.7 |
| 20260506073100 | 58 | 134 | 3.5 | 12.2 | 0.00 | 0.00 | 0.00 | 83 | 1009.7 |
| 20260506071559 | 58 | 206 | 1.7 | 8.7 | 0.00 | 0.00 | 0.00 | 82 | 1009.5 |
| 20260506061552 | 59 | 196 | 3.5 | 13.9 | 0.00 | 0.00 | 0.00 | 80 | 1009.4 |
| 20260506044538 | 59 | 268 | 3.5 | 12.2 | 0.00 | 0.00 | 0.00 | 76 | 1010.0 |
| 20260506043031 | 59 | 205 | 6.1 | 14.8 | 0.00 | 0.00 | 0.00 | 75 | 1010.0 |
| 20260506041528 | 59 | 194 | 2.6 | 8.7 | 0.00 | 0.00 | 0.00 | 74 | 1009.9 |
| 20260506040027 | 59 | 150 | 5.2 | 13.9 | 0.00 | 0.00 | 0.00 | 73 | 1009.9 |
| 20260506034522 | 59 | 173 | 3.5 | 14.8 | 0.00 | 0.00 | 0.00 | 72 | 1009.8 |
| 20260506033021 | 59 | 286 | 3.5 | 10.4 | 0.00 | 0.00 | 0.00 | 72 | 1009.6 |
| 20260506031520 | 59 | 162 | 2.6 | 13.0 | 0.00 | 0.00 | 0.00 | 71 | 1009.6 |
| 20260506030021 | 59 | 202 | 3.5 | 11.3 | 0.00 | 0.00 | 0.00 | 71 | 1009.4 |
| 20260506024520 | 59 | 168 | 4.3 | 13.0 | 0.00 | 0.00 | 0.00 | 71 | 1009.5 |
| 20260506023034 | 59 | 247 | 6.1 | 14.8 | 0.00 | 0.00 | 0.00 | 71 | 1009.4 |
| 20260506021531 | 60 | 200 | 3.5 | 17.4 | 0.00 | 0.00 | 0.00 | 71 | 1009.3 |
| 20260506020017 | 60 | 180 | 4.3 | 13.9 | 0.00 | 0.00 | 0.00 | 71 | 1009.4 |
| 20260506014619 | 60 | 211 | 3.5 | 9.6 | 0.00 | 0.00 | 0.00 | 71 | 1009.5 |
| 20260506013019 | 60 | 224 | 2.6 | 14.8 | 0.00 | 0.00 | 0.00 | 70 | 1009.4 |
| 20260506011515 | 60 | 188 | 2.6 | 9.6 | 0.00 | 0.00 | 0.00 | 71 | 1009.1 |
| 20260506010015 | 60 | 165 | 4.3 | 11.3 | 0.00 | 0.00 | 0.00 | 71 | 1009.1 |
| 20260506004515 | 60 | 198 | 2.6 | 8.7 | 0.00 | 0.00 | 0.00 | 71 | 1008.9 |
| 20260506003015 | 60 | 186 | 2.6 | 9.6 | 0.00 | 0.00 | 0.00 | 70 | 1008.8 |
| 20260506001513 | 61 | 204 | 2.6 | 10.4 | 0.00 | 0.00 | 0.00 | 68 | 1008.6 |
| 20260506000008 | 61 | 211 | 2.6 | 11.3 | 0.00 | 0.00 | 0.00 | 67 | 1008.1 |
| 20260505234513 | 62 | 200 | 2.6 | 12.2 | 0.00 | 0.00 | 0.00 | 66 | 1007.8 |
| 20260505233007 | 63 | 141 | 4.3 | 15.6 | 0.00 | 0.00 | 0.00 | 65 | 1007.7 |
| 20260505231507 | 64 | 150 | 4.3 | 19.1 | 0.00 | 0.00 | 0.00 | 64 | 1007.6 |
| 20260505230010 | 64 | 180 | 4.3 | 13.9 | 0.00 | 0.00 | 0.00 | 62 | 1007.0 |
| 20260505224505 | 66 | 131 | 5.2 | 15.6 | 0.00 | 0.00 | 0.00 | 59 | 1006.8 |
| 20260505223005 | 67 | 236 | 1.7 | 13.9 | 0.00 | 0.00 | 0.00 | 57 | 1006.9 |
| 20260505221504 | 68 | 197 | 7.0 | 17.4 | 0.00 | 0.00 | 0.00 | 54 | 1006.8 |
| 20260505220003 | 68 | 205 | 5.2 | 14.8 | 0.00 | 0.00 | 0.00 | 54 | 1006.6 |
| 20260505214502 | 69 | 192 | 5.2 | 18.2 | 0.00 | 0.00 | 0.00 | 55 | 1006.5 |
| 20260505213004 | 69 | 204 | 4.3 | 13.0 | 0.00 | 0.00 | 0.00 | 55 | 1006.5 |
| 20260505211502 | 70 | 185 | 7.8 | 16.5 | 0.00 | 0.00 | 0.00 | 52 | 1006.5 |
| 20260505210100 | 71 | 223 | 3.5 | 19.1 | 0.00 | 0.00 | 0.00 | 53 | 1006.3 |
| 20260505204600 | 72 | 156 | 6.1 | 13.9 | 0.00 | 0.00 | 0.00 | 51 | 1006.5 |
| 20260505203121 | 73 | 190 | 1.7 | 12.2 | 0.00 | 0.00 | 0.00 | 50 | 1006.4 |
| 20260505201604 | 73 | 181 | 5.2 | 16.5 | 0.00 | 0.00 | 0.00 | 48 | 1006.7 |
| 20260505200059 | 74 | 221 | 4.3 | 13.9 | 0.00 | 0.00 | 0.00 | 47 | 1006.4 |
| 20260505194556 | 75 | 169 | 4.3 | 22.6 | 0.00 | 0.00 | 0.00 | 45 | 1006.5 |
| 20260505193056 | 76 | 189 | 5.2 | 13.0 | 0.00 | 0.00 | 0.00 | 45 | 1006.5 |
| 20260505191605 | 77 | 212 | 3.5 | 17.4 | 0.00 | 0.00 | 0.00 | 43 | 1006.5 |
| 20260505190055 | 77 | 144 | 4.3 | 13.9 | 0.00 | 0.00 | 0.00 | 45 | 1006.7 |
| 20260505184552 | 77 | 171 | 5.2 | 17.4 | 0.00 | 0.00 | 0.00 | 44 | 1006.8 |
| 20260505183049 | 76 | 180 | 6.1 | 20.0 | 0.00 | 0.00 | 0.00 | 45 | 1007.1 |
| 20260505181550 | 77 | 185 | 5.2 | 14.8 | 0.00 | 0.00 | 0.00 | 44 | 1007.3 |
| 20260505180051 | 77 | 223 | 6.1 | 17.4 | 0.00 | 0.00 | 0.00 | 46 | 1007.3 |
| 20260505174547 | 76 | 169 | 4.3 | 18.2 | 0.00 | 0.00 | 0.00 | 49 | 1007.7 |
| 20260505173049 | 76 | 233 | 5.2 | 13.0 | 0.00 | 0.00 | 0.00 | 46 | 1007.8 |
| 20260505171548 | 78 | 215 | 4.3 | 17.4 | 0.00 | 0.00 | 0.00 | 47 | 1007.6 |
| 20260505164543 | 78 | 178 | 2.6 | 8.7 | 0.00 | 0.00 | 0.00 | 46 | 1008.0 |
| 20260505163041 | 77 | 190 | 2.6 | 10.4 | 0.00 | 0.00 | 0.00 | 47 | 1008.2 |
| 20260505161535 | 76 | 222 | 1.7 | 7.8 | 0.00 | 0.00 | 0.00 | 49 | 1008.5 |